This is the latest recevied weather packets stored in our database for station/object KC1DMA. If no packets are shown the sender has not sent any weather packets the latest 10 day(s).
| Time | Temp. | Humidity | Pressure | Rain* | Wind** | Luminosity | Snow |
|---|---|---|---|---|---|---|---|
| 1777585027 | 12.78° C | 87% | 1008.1 hPa | - | - | 165 W/m² | - |
| 1777584723 | 12.22° C | 89% | 1008 hPa | - | - | 108 W/m² | - |
| 1777584421 | 12.22° C | 89% | 1008 hPa | - | - | 83 W/m² | - |
| 1777584117 | 11.67° C | 88% | 1007.9 hPa | - | - | 59 W/m² | - |
| 1777583816 | 11.67° C | 88% | 1007.8 hPa | - | - | 55 W/m² | - |
| 1777583511 | 11.67° C | 89% | 1007.9 hPa | - | - | 50 W/m² | - |
| 1777583206 | 11.67° C | 89% | 1008.1 hPa | - | - | 53 W/m² | - |
| 1777582901 | 12.22° C | 88% | 1007.8 hPa | - | - | 45 W/m² | - |
| 1777582599 | 12.22° C | 88% | 1007.7 hPa | - | - | 70 W/m² | - |
| 1777582293 | 12.22° C | 87% | 1007.8 hPa | - | - | 100 W/m² | - |
| 1777581991 | 12.22° C | 87% | 1007.5 hPa | - | - | 100 W/m² | - |
| 1777581686 | 12.22° C | 87% | 1007.7 hPa | - | - | 100 W/m² | - |
| 1777581381 | 12.22° C | 87% | 1007.5 hPa | - | - | 88 W/m² | - |
| 1777581080 | 11.67° C | 87% | 1007.4 hPa | - | - | 89 W/m² | - |
| 1777580779 | 12.22° C | 86% | 1007.5 hPa | - | - | 84 W/m² | - |
| 1777580477 | 12.22° C | 87% | 1007.7 hPa | - | - | 95 W/m² | - |
| 1777580177 | 12.22° C | 87% | 1007.7 hPa | - | - | 113 W/m² | - |
| 1777579875 | 12.78° C | 83% | 1007.6 hPa | - | - | 137 W/m² | - |
| 1777579574 | 12.78° C | 83% | 1007.6 hPa | - | - | 137 W/m² | - |
| 1777579268 | 12.78° C | 83% | 1007.7 hPa | - | - | 137 W/m² | - |
| 1777578964 | 12.78° C | 83% | 1007.8 hPa | - | - | 137 W/m² | - |
| 1777578659 | 12.78° C | 83% | 1007.7 hPa | - | - | 137 W/m² | - |
| 1777578358 | 12.78° C | 83% | 1007.9 hPa | - | - | 137 W/m² | - |
| 1777578054 | 12.78° C | 83% | 1007.8 hPa | - | - | 137 W/m² | - |
| 1777577749 | 12.78° C | 83% | 1007.6 hPa | - | - | 137 W/m² | - |
* Rain since midnight (hover to see other rain measurements)
** Current wind speed in m/s (hover to see current wind gust speed)